sat.trackr.live / text

‹ back to catalog

STARLINK-32154

NORAD 60276 · 2024-131X

PAYLOAD ACTIVE UNKNOWN

§ Identity

Operator
Country
US
Launch date
2024-07-27
Launch site
AFETR
Launch vehicle
Mass (kg)
RCS (m²)

Purposes: comms

External: N2YO · Heavens-Above · Gunter

§ Orbital elements

Epoch: 2026-05-25T04:17:45.396096Z

Period
94.11 min
Inclination
53.1602°
Eccentricity
0.0001068
Mean motion
15.30196196 rev/d
Perigee alt
474.5 km
Apogee alt
476.0 km
Semi-major
6,853.4 km
B*
3.0845e-5
RAAN
56.8433°
Arg perigee
82.5599°
Mean anomaly
277.5523°
Rev number
10,343

§ Raw data

STARLINK-321541 60276U 24131X   26145.17899764  .00000554  00000+0  30845-4 0  99982 60276  53.1602  56.8433 0001068  82.5599 277.5523 15.30196196103435

JSON: /api/v1/satellites/60276 · /tle

For live sub-satellite position, see the globe view (requires WebGL).

§ Visibility from observer

Set your observer location to see the next 7 days of passes ≥ 10°. The values pass through the URL so the page stays shareable.

No JS? Fill the form by hand. The geolocation button needs JavaScript.